Change the Weather History Date:

Saturday, April 5, 2014

  Actual Average Record
Temperature  
Mean Temperature 54 °F -  
Max Temperature 60 °F 71 °F 90 °F (1988)
Min Temperature 48 °F 47 °F 31 °F (1945)
Degree Days  
Heating Degree Days 11    
Growing Degree Days 4 (Base 50)    
Moisture  
Dew Point 35 °F    
Average Humidity 52    
Maximum Humidity 76    
Minimum Humidity 33    
Precipitation  
Precipitation 0.00 in - - ()
Sea Level Pressure  
Sea Level Pressure 30.05 in    
Wind  
Wind Speed 6 mph (East)    
Max Wind Speed 23 mph    
Max Gust Speed 30 mph    
Visibility 10 miles    
Events      
Averages and records for this station are not official NWS values.
T = Trace of Precipitation, MM = Missing Value Source: NWS Daily Summary

Daily Weather History Graph

Daily Weather History Graph

Search for Another Location

Airport or City:

Trip Planner

Search our weather history database for the weather conditions in past years. The results will help you decide how hot, cold, wet, or windy it might be!

Date:

Astronomy

Apr. 05, 2014 Rise Set
Actual Time 7:15 AM CDT 7:55 PM CDT
Civil Twilight 6:51 AM CDT 8:20 PM CDT
Nautical Twilight 6:21 AM CDT 8:49 PM CDT
Astronomical Twilight 5:52 AM CDT 9:19 PM CDT
Moon 11:36 AM CDT (4/5) 12:54 AM CDT (4/5)
Length of Visible Light 13h 29m
Length of Day
12h 39m
Waxing Crescent, 34% of the Moon is Illuminated
Apr 5
Waxing Crescent
Apr 7
First Quarter
Apr 15
Full
Apr 22
Last Quarter
Apr 29
New

Hourly Weather History & Observations

Time (CDT) Temp. Dew Point Humidity Pressure Visibility Wind Dir Wind Speed Gust Speed Precip Events Conditions
12:15 AM 51.1 °F 34.0 °F 52% 30.14 in 10.0 mi East 5.8 mph - N/A   Clear
12:35 AM 50.9 °F 34.0 °F 52% 30.14 in 10.0 mi ESE 5.8 mph - N/A   Clear
12:55 AM 50.4 °F 33.4 °F 52% 30.14 in 10.0 mi ESE 4.6 mph - N/A   Clear
1:15 AM 50.2 °F 34.0 °F 54% 30.13 in 10.0 mi East 5.8 mph - N/A   Clear
1:35 AM 50.7 °F 34.5 °F 54% 30.12 in 10.0 mi East 3.5 mph - N/A   Clear
1:55 AM 50.2 °F 35.4 °F 57% 30.12 in 10.0 mi East 3.5 mph - N/A   Clear
2:15 AM 50.4 °F 34.9 °F 55% 30.12 in 10.0 mi East 5.8 mph - N/A   Clear
2:35 AM 50.9 °F 34.0 °F 52% 30.11 in 10.0 mi East 4.6 mph - N/A   Clear
2:55 AM 50.0 °F 33.4 °F 53% 30.11 in 10.0 mi Calm Calm - N/A   Clear
3:15 AM 50.0 °F 33.1 °F 52% 30.11 in 10.0 mi Calm Calm - N/A   Clear
3:35 AM 50.0 °F 33.4 °F 53% 30.10 in 10.0 mi Calm Calm - N/A   Clear
3:55 AM 49.3 °F 33.8 °F 55% 30.09 in 10.0 mi Calm Calm - N/A   Clear
4:15 AM 48.9 °F 34.3 °F 57% 30.09 in 10.0 mi Calm Calm - N/A   Clear
4:35 AM 49.1 °F 34.2 °F 56% 30.09 in 10.0 mi Calm Calm - N/A   Clear
4:55 AM 50.4 °F 33.8 °F 53% 30.09 in 10.0 mi Calm Calm - N/A   Clear
5:15 AM 49.8 °F 34.3 °F 55% 30.09 in 10.0 mi Calm Calm - N/A   Clear
5:35 AM 49.6 °F 34.0 °F 55% 30.09 in 10.0 mi Calm Calm - N/A   Clear
5:55 AM 49.5 °F 34.2 °F 56% 30.09 in 10.0 mi Calm Calm - N/A   Clear
6:15 AM 49.1 °F 34.7 °F 58% 30.09 in 10.0 mi Calm Calm - N/A   Clear
6:35 AM 48.7 °F 35.1 °F 59% 30.09 in 10.0 mi Calm Calm - N/A   Clear
6:55 AM 49.1 °F 34.5 °F 57% 30.09 in 10.0 mi Calm Calm - N/A   Clear
7:15 AM 48.6 °F 35.4 °F 60% 30.10 in 10.0 mi Calm Calm - N/A   Clear
7:35 AM 48.6 °F 35.6 °F 61% 30.12 in 10.0 mi SE 3.5 mph - N/A   Scattered Clouds
7:55 AM 48.9 °F 35.1 °F 59% 30.13 in 10.0 mi SE 4.6 mph - N/A   Mostly Cloudy
8:15 AM 49.6 °F 33.1 °F 53% 30.14 in 10.0 mi SE 6.9 mph - N/A   Mostly Cloudy
8:35 AM 50.2 °F 32.0 °F 50% 30.14 in 10.0 mi SE 9.2 mph - N/A   Mostly Cloudy
8:55 AM 50.5 °F 31.6 °F 48% 30.14 in 10.0 mi ESE 9.2 mph - N/A   Overcast
9:15 AM 50.9 °F 31.6 °F 48% 30.15 in 10.0 mi Calm Calm - N/A   Overcast
9:35 AM 51.3 °F 30.6 °F 45% 30.14 in 10.0 mi ESE 8.1 mph - N/A   Overcast
9:55 AM 51.4 °F 30.6 °F 45% 30.14 in 10.0 mi SE 10.4 mph - N/A   Overcast
10:15 AM 51.8 °F 30.2 °F 44% 30.14 in 10.0 mi ESE 11.5 mph - N/A   Overcast
10:35 AM 51.8 °F 31.1 °F 45% 30.15 in 10.0 mi East 3.5 mph - N/A   Overcast
10:55 AM 51.4 °F 32.0 °F 47% 30.15 in 10.0 mi SE 5.8 mph - N/A   Overcast
11:15 AM 52.0 °F 31.5 °F 46% 30.14 in 10.0 mi East 8.1 mph - N/A   Overcast
11:35 AM 52.9 °F 31.8 °F 45% 30.13 in 10.0 mi ESE 6.9 mph - N/A   Overcast
11:55 AM 53.6 °F 30.4 °F 41% 30.13 in 10.0 mi ESE 9.2 mph - N/A   Overcast
12:15 PM 54.5 °F 29.8 °F 39% 30.13 in 10.0 mi ESE 8.1 mph - N/A   Overcast
12:35 PM 54.0 °F 30.7 °F 41% 30.11 in 10.0 mi SE 10.4 mph - N/A   Mostly Cloudy
12:55 PM 54.0 °F 31.1 °F 42% 30.09 in 10.0 mi SE 10.4 mph - N/A   Mostly Cloudy
1:15 PM 54.1 °F 29.1 °F 38% 30.07 in 10.0 mi SE 11.5 mph - N/A   Overcast
1:35 PM 54.9 °F 30.4 °F 39% 30.04 in 10.0 mi ESE 12.7 mph - N/A   Overcast
1:55 PM 54.9 °F 30.0 °F 39% 30.01 in 10.0 mi ESE 15.0 mph 23.0 mph N/A   Overcast
2:15 PM 55.4 °F 30.6 °F 39% 30.00 in 10.0 mi SE 16.1 mph 19.6 mph N/A   Overcast
2:35 PM 55.4 °F 30.7 °F 39% 29.97 in 10.0 mi SE 23.0 mph 28.8 mph N/A   Mostly Cloudy
2:55 PM 55.9 °F 32.4 °F 41% 29.95 in 7.0 mi ESE 15.0 mph 29.9 mph N/A   Scattered Clouds
3:15 PM 55.6 °F 32.7 °F 42% 29.98 in 10.0 mi ESE 11.5 mph 23.0 mph N/A   Scattered Clouds
3:35 PM 56.7 °F 32.4 °F 40% 29.97 in 10.0 mi East 16.1 mph 21.9 mph N/A   Scattered Clouds
3:55 PM 56.5 °F 32.5 °F 40% 29.96 in 10.0 mi East 10.4 mph - N/A   Scattered Clouds
4:15 PM 57.9 °F 33.4 °F 40% 29.95 in 10.0 mi East 8.1 mph - N/A   Scattered Clouds
4:35 PM 59.4 °F 31.8 °F 35% 29.94 in 10.0 mi East 11.5 mph 16.1 mph N/A   Scattered Clouds
4:55 PM 60.3 °F 31.1 °F 33% 29.94 in 10.0 mi East 9.2 mph - N/A   Clear
5:15 PM 58.5 °F 33.6 °F 39% 29.95 in 10.0 mi East 9.2 mph - N/A   Mostly Cloudy
5:35 PM 58.1 °F 35.4 °F 43% 29.95 in 10.0 mi East 5.8 mph - N/A   Overcast
5:55 PM 57.4 °F 36.5 °F 46% 29.96 in 10.0 mi NE 4.6 mph - N/A   Overcast
6:15 PM 59.2 °F 36.9 °F 43% 29.95 in 10.0 mi East 5.8 mph - N/A   Scattered Clouds
6:35 PM 59.0 °F 37.2 °F 44% 29.95 in 10.0 mi ESE 3.5 mph - N/A   Scattered Clouds
6:55 PM 59.4 °F 37.9 °F 45% 29.97 in 10.0 mi East 5.8 mph - N/A   Scattered Clouds
7:15 PM 57.6 °F 39.2 °F 50% 29.97 in 10.0 mi ENE 8.1 mph - N/A   Scattered Clouds
7:35 PM 55.4 °F 40.1 °F 56% 29.97 in 10.0 mi East 9.2 mph - N/A   Mostly Cloudy
7:55 PM 54.5 °F 40.1 °F 58% 29.97 in 10.0 mi ENE 6.9 mph - N/A   Overcast
8:15 PM 53.6 °F 40.5 °F 61% 29.97 in 10.0 mi East 5.8 mph - N/A   Mostly Cloudy
8:35 PM 52.3 °F 41.4 °F 66% 29.97 in 10.0 mi East 4.6 mph - N/A   Scattered Clouds
8:55 PM 51.6 °F 41.9 °F 69% 29.96 in 10.0 mi ENE 5.8 mph - N/A   Scattered Clouds
9:15 PM 51.3 °F 42.3 °F 71% 29.96 in 10.0 mi East 9.2 mph - N/A   Mostly Cloudy
9:35 PM 50.9 °F 42.8 °F 74% 29.96 in 10.0 mi ENE 6.9 mph - N/A   Mostly Cloudy
9:55 PM 50.7 °F 42.8 °F 74% 29.97 in 10.0 mi ENE 5.8 mph - N/A   Overcast
10:15 PM 50.5 °F 42.8 °F 75% 29.98 in 10.0 mi ENE 5.8 mph - N/A   Overcast
10:35 PM 50.2 °F 42.8 °F 76% 29.96 in 10.0 mi East 10.4 mph - N/A   Overcast
10:55 PM 50.4 °F 43.0 °F 76% 29.97 in 10.0 mi East 4.6 mph - N/A   Overcast
11:15 PM 50.4 °F 42.8 °F 75% 29.96 in 10.0 mi East 8.1 mph - N/A   Overcast
11:35 PM 50.0 °F 42.4 °F 75% 29.96 in 10.0 mi East 5.8 mph - N/A   Overcast
11:55 PM 50.0 °F 42.3 °F 75% 29.95 in 10.0 mi East 10.4 mph - N/A   Mostly Cloudy